TimeCST,TemperatureF,Dew PointF,Humidity,Sea Level PressureIn,VisibilityMPH,Wind Direction,Wind SpeedMPH,Gust SpeedMPH,PrecipitationIn,Events,Conditions,WindDirDegrees,DateUTC
6:00 AM,76,67,66,29.90,12,East,10.4,,,,Mostly Cloudy,80,2012-12-31 12:00:00
6:00 AM,77.0,66.2,69,29.89,6.2,East,10.4,-,N/A,,Mostly Cloudy,80,2012-12-31 12:00:00
6:10 AM,77.0,68.0,74,29.89,6.2,NE,9.2,-,N/A,,Mostly Cloudy,50,2012-12-31 12:10:00
7:00 AM,77.0,68.0,74,29.89,6.2,ENE,9.2,-,N/A,,Scattered Clouds,60,2012-12-31 13:00:00
8:00 AM,80.6,68.0,65,29.89,6.2,NE,16.1,-,N/A,,Mostly Cloudy,50,2012-12-31 14:00:00
9:00 AM,84,66,45,29.91,12,ENE,13.8,,,,Overcast,70,2012-12-31 15:00:00
9:00 AM,84.2,66.2,55,29.90,6.2,ENE,13.8,-,N/A,,Overcast,70,2012-12-31 15:00:00
10:00 AM,87.8,64.4,46,29.88,6.2,ENE,20.7,-,N/A,,Overcast,70,2012-12-31 16:00:00
11:00 AM,87.8,64.4,46,29.86,6.2,East,20.7,33.4,N/A,,Overcast,80,2012-12-31 17:00:00
12:00 PM,91,61,27,29.84,12,ENE,1.2,,,,Scattered Clouds,70,2012-12-31 18:00:00
12:00 PM,91.4,60.8,36,29.83,6.2,ENE,21.9,36.8,N/A,,Mostly Cloudy,70,2012-12-31 18:00:00
1:00 PM,89.6,60.8,38,29.80,6.2,East,23.0,38.0,N/A,,Mostly Cloudy,80,2012-12-31 19:00:00
2:00 PM,89.6,60.8,38,29.78,6.2,East,19.6,31.1,N/A,,Mostly Cloudy,80,2012-12-31 20:00:00
3:00 PM,91,62,29,29.78,12,ENE,1.2,,,,Scattered Clouds,70,2012-12-31 21:00:00
3:00 PM,91.4,62.6,38,29.77,6.2,ENE,18.4,-,N/A,,Mostly Cloudy,70,2012-12-31 21:00:00
4:00 PM,89.6,62.6,40,29.77,6.2,ENE,15.0,-,N/A,,Overcast,70,2012-12-31 22:00:00
5:00 PM,86.0,64.4,48,29.80,6.2,ENE,15.0,-,N/A,,Mostly Cloudy,60,2012-12-31 23:00:00
6:00 PM,82.4,66.2,58,29.81,6.2,NE,5.8,-,N/A,,Mostly Cloudy,50,2013-01-01 00:00:00
7:00 PM,80.6,68.0,65,29.83,6.2,ENE,10.4,-,N/A,,Mostly Cloudy,60,2013-01-01 01:00:00
8:00 PM,78.8,68.0,69,29.85,6.2,East,9.2,-,N/A,,Mostly Cloudy,80,2013-01-01 02:00:00